GW6296 Weather Reports


time (UTC)temp
C
wind
direction
speed
KPH
gust
KPH
rain 1hr
cm
rain 24hr
cm
rain mn
cm
humidity
%
barometer
mb
20260906231608 17 18 8.0 12.9 0.00 0.46 0.28 74 1015.5
20260906230054 17 32 8.0 12.9 0.00 0.46 0.28 76 1015.7
20260906224554 17 321 4.8 12.9 0.00 0.46 0.28 78 1015.8
20260906223101 16 326 4.8 11.3 0.00 0.46 0.28 80 1016.0
20260906221548 16 278 3.2 11.3 0.00 0.46 0.28 79 1016.0
20260906220045 16 281 6.4 11.3 0.00 0.46 0.28 81 1016.1
20260906214545 16 255 8.0 12.9 0.00 0.46 0.28 81 1016.0
20260906213042 16 282 6.4 11.3 0.00 0.46 0.28 78 1016.0
20260906211546 16 215 1.6 4.8 0.00 0.46 0.28 77 1015.8
20260906210043 16 23 1.6 6.4 0.00 0.46 0.28 77 1015.9
20260906204534 16 343 4.8 11.3 0.00 0.46 0.28 80 1016.0
20260906203036 16 349 1.6 8.0 0.00 0.46 0.28 79 1016.1
20260906201540 16 244 4.8 8.0 0.00 0.46 0.28 78 1016.1
20260906200027 16 254 6.4 9.7 0.00 0.46 0.28 77 1016.1
20260906194525 16 266 6.4 12.9 0.00 0.46 0.28 78 1016.1
20260906193022 17 276 9.7 14.5 0.00 0.46 0.28 78 1016.1
20260906191520 17 212 0.0 6.4 0.00 0.46 0.28 72 1016.1
20260906190017 17 56 3.2 12.9 0.00 0.46 0.28 73 1016.1
20260906184515 17 89 9.7 22.5 0.00 0.46 0.28 75 1016.0
20260906183009 17 62 9.7 19.3 0.00 0.46 0.28 80 1015.8
20260906181514 16 72 12.9 20.9 0.00 0.46 0.28 83 1016.0
20260906180121 15 54 14.5 24.1 0.00 0.46 0.28 87 1016.3
20260906174617 13 26 16.1 22.5 0.03 0.46 0.28 88 1016.7
20260906173054 13 29 19.3 29.0 0.03 0.46 0.28 91 1016.9
20260906171610 12 73 24.1 33.8 0.03 0.46 0.28 91 1016.6
20260906170058 12 4 19.3 27.4 0.00 0.43 0.25 90 1017.9
20260906164546 12 312 12.9 17.7 0.00 0.43 0.25 90 1018.1
20260906163044 13 340 1.6 9.7 0.00 0.43 0.25 91 1017.7
20260906161609 12 45 12.9 25.7 0.00 0.43 0.25 92 1017.4
20260906160040 12 31 19.3 29.0 0.00 0.43 0.25 91 1017.4
20260906154544 12 18 17.7 25.7 0.03 0.43 0.25 91 1017.9
20260906153047 11 325 11.3 19.3 0.08 0.43 0.25 92 1018.2
20260906151534 11 333 12.9 24.1 0.18 0.43 0.25 93 1018.3
20260906150036 11 318 17.7 29.0 0.25 0.43 0.25 93 1018.2
20260906144532 11 315 20.9 32.2 0.23 0.43 0.23 93 1018.6
20260906143026 11 310 20.9 29.0 0.18 0.38 0.18 93 1018.8
20260906141520 12 285 25.7 32.2 0.08 0.28 0.08 90 1019.0
20260906140017 13 243 14.5 24.1 0.00 0.20 0.00 84 1018.6
20260906134516 15 69 9.7 16.1 0.00 0.33 0.00 83 1017.8
20260906133013 15 90 12.9 19.3 0.00 0.33 0.00 80 1017.9
20260906131511 15 84 11.3 22.5 0.00 0.33 0.00 80 1017.7
20260906130013 14 70 12.9 24.1 0.00 0.33 0.00 81 1017.7
20260906124506 13 333 8.0 12.9 0.00 0.36 0.00 85 1018.2
20260906123013 15 316 9.7 32.2 0.00 0.36 0.00 78 1018.2
20260906121614 15 64 17.7 41.8 0.00 0.36 0.00 79 1017.9
20260906120104 12 317 14.5 24.1 0.00 0.36 0.00 86 1018.5
20260906114554 13 53 17.7 22.5 0.00 0.36 0.00 85 1017.7
20260906113048 13 65 6.4 11.3 0.00 0.36 0.00 82 1018.4
20260906111549 12 79 6.4 12.9 0.00 0.36 0.00 82 1018.2
20260906110043 12 84 1.6 4.8 0.00 0.36 0.00 83 1018.1
20260906104541 12 62 1.6 4.8 0.00 0.36 0.00 85 1018.0
20260906103045 13 5 6.4 9.7 0.00 0.36 0.00 86 1018.2
20260906101538 13 27 4.8 12.9 0.00 0.36 0.00 87 1018.2
20260906100036 12 341 4.8 11.3 0.00 0.36 0.00 89 1018.3
20260906094530 12 25 8.0 20.9 0.00 0.36 0.00 89 1018.3
20260906093029 12 7 16.1 29.0 0.00 0.36 0.00 88 1018.5
20260906091527 12 48 19.3 30.6 0.00 0.36 0.00 89 1018.7
20260906090026 12 326 9.7 24.1 0.00 0.36 0.00 90 1019.3
20260906084522 12 1 24.1 32.2 0.00 0.36 0.00 89 1019.4
20260906083019 12 326 17.7 37.0 0.00 0.36 0.00 89 1019.8
20260906081521 12 290 12.9 33.8 0.00 0.36 0.00 92 1019.8
20260906080016 12 41 25.7 0.0 0.00 0.00 0.00 91 1018.5
20260906074507 12 331 16.1 24.1 0.00 0.36 0.00 90 1018.9
20260906073006 12 352 19.3 32.2 0.00 0.36 0.00 89 1018.7
20260906071502 12 39 25.7 35.4 0.00 0.36 0.00 89 1018.7
20260906070058 12 13 25.7 33.8 0.00 0.36 0.00 89 1019.2
20260906064556 12 20 20.9 32.2 0.00 0.36 0.00 89 1019.5
20260906063052 12 360 25.7 35.4 0.00 0.36 0.00 89 1019.5
20260906061550 12 342 25.7 33.8 0.00 0.36 0.00 89 1020.0
20260906060054 12 354 19.3 27.4 0.00 0.36 0.00 88 1019.9
20260906054545 12 345 20.9 29.0 0.03 0.36 0.36 88 1019.4
20260906053040 12 1 25.7 35.4 0.03 0.36 0.36 88 1019.4
20260906051538 12 12 22.5 30.6 0.03 0.36 0.36 87 1019.6
20260906050034 12 8 20.9 32.2 0.03 0.36 0.36 88 1019.5
20260906044533 13 349 9.7 17.7 0.00 0.33 0.33 86 1020.2
20260906043034 12 21 19.3 29.0 0.08 0.33 0.33 86 1018.9
20260906041530 12 350 24.1 30.6 0.15 0.33 0.33 87 1018.5
20260906040026 12 333 17.7 27.4 0.15 0.33 0.33 88 1019.0
20260906034541 12 358 17.7 35.4 0.15 0.33 0.33 88 1019.5
20260906033022 13 354 17.7 24.1 0.08 0.25 0.25 82 1020.6
20260906031525 15 351 12.9 32.2 0.00 0.18 0.18 74 1019.8
20260906030012 15 337 20.9 32.2 0.00 0.18 0.18 71 1018.4
20260906024510 15 25 20.9 32.2 0.00 0.18 0.18 70 1017.9
20260906023007 15 25 22.5 30.6 0.00 0.18 0.18 70 1017.5
20260906021505 15 12 24.1 33.8 0.00 0.18 0.18 69 1017.7
20260906020004 16 30 20.9 29.0 0.00 0.18 0.18 68 1017.7
20260906014503 16 34 19.3 25.7 0.00 0.18 0.18 67 1017.9
20260906013202 16 352 19.3 27.4 0.00 0.18 0.18 67 1018.0
20260906011559 16 36 19.3 30.6 0.00 0.18 0.18 66 1017.7
20260906010136 17 332 19.3 29.0 0.00 0.18 0.18 66 1017.9
20260906004611 17 3 24.1 32.2 0.00 0.18 0.18 65 1017.9
20260906003052 18 340 22.5 33.8 0.00 0.18 0.18 62 1018.2
20260906001601 19 38 19.3 30.6 0.00 0.18 0.18 59 1018.3
20260906000047 19 25 17.7 27.4 0.00 0.18 0.18 58 1018.3
20260905234545 20 329 12.9 22.5 0.00 0.18 0.18 55 1018.6
20260905233043 20 23 16.1 27.4 0.00 0.18 0.18 55 1018.6